Total_Precipitation_Accumulation
0.98 1.17 1.01 0.68 0.63 0.53 0.48 0.55 0.46 0.31 0.28 0.35 0.34 0.26 0.18 0.17 0.24 0.29 0.25 0.25 0.24 0.28 0.33 0.37 0.46 0.53 0.69 0.77 0.78 0.83 0.89 1.05 1.17 1.27 1.43 1.33 1.22 1.22 1.22 1.18 1.18 1.17 1.25 1.31
1.12 0.99 0.53 0.36 0.43 0.51 0.56 0.64 0.51 0.34 0.28 0.41 0.39 0.29 0.20 0.18 0.22 0.28 0.23 0.23 0.27 0.28 0.34 0.40 0.47 0.52 0.66 0.78 0.79 0.83 0.91 1.04 1.10 1.17 1.28 1.34 1.26 1.25 1.29 1.24 1.22 1.19 1.19 1.24
0.82 0.56 0.30 0.45 0.58 0.70 0.66 0.58 0.46 0.42 0.39 0.47 0.51 0.46 0.27 0.22 0.19 0.24 0.23 0.21 0.28 0.33 0.36 0.43 0.49 0.53 0.63 0.76 0.80 0.82 0.90 1.03 1.09 1.22 1.33 1.44 1.54 1.48 1.46 1.43 1.31 1.21 1.18 1.17
0.59 0.35 0.35 0.55 0.64 0.72 0.70 0.39 0.40 0.47 0.70 0.76 0.64 0.74 0.35 0.24 0.21 0.24 0.24 0.22 0.25 0.31 0.35 0.42 0.48 0.55 0.60 0.67 0.79 0.85 0.95 1.03 1.08 1.26 1.38 1.36 1.47 1.45 1.31 1.22 1.27 1.24 1.18 1.16
0.75 0.41 0.43 0.56 0.47 0.52 0.55 0.35 0.45 0.57 0.78 0.90 0.66 0.74 0.40 0.22 0.25 0.24 0.23 0.21 0.24 0.29 0.29 0.35 0.41 0.46 0.54 0.60 0.72 0.84 0.99 1.10 1.12 1.18 1.35 1.39 1.32 1.30 1.31 1.30 1.26 1.29 1.29 1.22
0.62 0.42 0.49 0.44 0.33 0.40 0.54 0.64 0.78 0.88 1.26 1.48 0.59 0.57 0.46 0.38 0.43 0.32 0.24 0.22 0.25 0.26 0.27 0.32 0.33 0.39 0.50 0.60 0.70 0.79 0.94 1.07 1.13 1.14 1.24 1.38 1.33 1.26 1.25 1.31 1.33 1.30 1.34 1.31
0.78 0.56 0.47 0.41 0.54 0.68 0.91 1.36 2.00 2.14 2.12 1.26 0.31 0.41 0.50 0.40 0.38 0.38 0.33 0.27 0.26 0.26 0.30 0.31 0.30 0.35 0.44 0.52 0.62 0.72 0.86 0.97 1.04 1.07 1.13 1.19 1.29 1.25 1.16 1.12 1.19 1.27 1.32 1.28
0.89 0.75 0.54 0.48 0.61 0.87 0.97 1.20 1.58 1.57 1.06 0.46 0.24 0.39 0.42 0.30 0.25 0.25 0.24 0.27 0.27 0.26 0.26 0.26 0.28 0.34 0.39 0.42 0.47 0.58 0.70 0.88 1.02 1.06 1.09 1.11 1.17 1.26 1.16 1.08 1.07 1.15 1.21 1.16
0.89 0.63 0.39 0.36 0.37 0.56 0.86 0.93 0.78 1.02 0.74 0.49 0.38 0.33 0.26 0.13 0.13 0.15 0.17 0.23 0.28 0.27 0.26 0.24 0.27 0.31 0.35 0.42 0.43 0.51 0.59 0.75 0.96 1.10 1.10 1.09 1.11 1.17 1.16 1.07 1.04 1.06 1.10 1.13
0.96 0.75 0.38 0.35 0.47 0.60 0.70 0.83 1.02 1.41 1.17 0.66 0.39 0.33 0.35 0.23 0.21 0.17 0.18 0.22 0.29 0.28 0.29 0.28 0.26 0.28 0.30 0.37 0.43 0.46 0.54 0.62 0.77 0.98 1.13 1.12 1.07 1.06 1.11 1.12 1.09 1.06 1.05 1.09
0.93 0.97 0.60 0.54 0.76 0.81 0.79 1.06 1.31 1.35 1.00 0.76 0.50 0.46 0.44 0.34 0.30 0.26 0.21 0.22 0.27 0.27 0.30 0.29 0.27 0.26 0.29 0.34 0.45 0.50 0.54 0.59 0.66 0.77 0.96 1.07 1.07 1.07 1.11 1.13 1.08 1.10 1.08 1.07
0.89 1.14 0.80 0.49 0.47 0.48 0.67 0.91 1.13 1.36 0.99 0.59 0.52 0.48 0.35 0.29 0.28 0.25 0.23 0.20 0.20 0.23 0.27 0.28 0.25 0.27 0.30 0.37 0.44 0.53 0.58 0.58 0.61 0.68 0.80 0.94 1.02 1.05 1.09 1.07 1.10 1.15 1.17 1.12
1.29 1.66 1.37 0.90 0.75 0.70 0.80 0.73 0.78 0.95 0.92 0.61 0.49 0.41 0.24 0.18 0.18 0.19 0.21 0.21 0.19 0.21 0.25 0.28 0.28 0.29 0.32 0.38 0.43 0.51 0.58 0.56 0.58 0.69 0.77 0.89 0.99 1.00 1.03 0.98 1.01 1.16 1.29 1.26
1.60 1.68 1.19 0.97 0.81 0.76 0.70 0.56 0.55 0.85 1.05 0.59 0.33 0.29 0.19 0.16 0.16 0.17 0.22 0.23 0.22 0.21 0.22 0.27 0.32 0.32 0.31 0.35 0.41 0.45 0.53 0.57 0.60 0.65 0.75 0.84 0.95 0.94 0.92 0.91 0.90 1.03 1.20 1.30
1.35 1.34 0.61 0.32 0.26 0.35 0.41 0.38 0.41 0.55 0.54 0.45 0.26 0.23 0.22 0.20 0.20 0.22 0.23 0.23 0.22 0.21 0.21 0.25 0.30 0.33 0.36 0.38 0.41 0.43 0.48 0.57 0.63 0.62 0.71 0.75 0.84 0.94 0.91 0.87 0.89 0.97 1.09 1.17
1.24 1.21 0.61 0.33 0.20 0.27 0.33 0.27 0.28 0.31 0.26 0.24 0.18 0.21 0.21 0.20 0.19 0.19 0.20 0.22 0.23 0.21 0.21 0.22 0.26 0.30 0.37 0.41 0.44 0.48 0.50 0.54 0.61 0.61 0.67 0.70 0.79 0.91 0.95 0.88 0.89 0.99 1.08 1.12
1.22 1.23 1.06 0.60 0.26 0.47 0.53 0.32 0.28 0.30 0.27 0.24 0.27 0.27 0.22 0.20 0.20 0.22 0.22 0.22 0.22 0.21 0.20 0.20 0.25 0.31 0.35 0.40 0.41 0.48 0.52 0.55 0.61 0.62 0.64 0.70 0.79 0.84 0.92 0.92 0.94 1.02 1.11 1.12
1.02 1.19 1.44 0.96 0.69 0.96 0.50 0.24 0.23 0.28 0.30 0.26 0.24 0.20 0.19 0.21 0.22 0.25 0.23 0.24 0.24 0.25 0.25 0.23 0.27 0.32 0.33 0.37 0.36 0.41 0.46 0.58 0.66 0.66 0.64 0.70 0.77 0.81 0.90 0.95 0.97 1.07 1.15 1.11
0.57 1.07 1.59 1.31 0.94 0.50 0.28 0.25 0.34 0.42 0.42 0.30 0.22 0.16 0.14 0.17 0.21 0.28 0.23 0.22 0.25 0.27 0.30 0.29 0.30 0.32 0.31 0.34 0.35 0.35 0.39 0.51 0.63 0.69 0.64 0.65 0.74 0.80 0.88 0.94 1.00 1.07 1.15 1.10
0.55 1.00 1.68 1.43 1.05 0.52 0.35 0.23 0.27 0.39 0.54 0.32 0.22 0.20 0.18 0.22 0.33 0.32 0.26 0.24 0.24 0.25 0.27 0.31 0.30 0.29 0.31 0.33 0.36 0.34 0.38 0.45 0.57 0.66 0.59 0.61 0.67 0.72 0.81 0.89 0.98 1.05 1.06 1.05
0.97 1.44 1.63 1.19 0.94 0.40 0.27 0.23 0.29 0.60 0.68 0.34 0.27 0.26 0.26 0.32 0.35 0.30 0.28 0.29 0.28 0.28 0.27 0.27 0.29 0.30 0.33 0.35 0.36 0.37 0.39 0.43 0.51 0.62 0.57 0.60 0.64 0.68 0.76 0.86 0.90 0.97 1.02 1.00
0.79 1.07 1.02 0.90 0.98 0.51 0.30 0.35 0.60 0.69 0.38 0.29 0.28 0.27 0.27 0.27 0.24 0.23 0.25 0.30 0.35 0.33 0.29 0.29 0.28 0.30 0.31 0.33 0.36 0.38 0.41 0.43 0.48 0.57 0.58 0.63 0.68 0.71 0.74 0.80 0.81 0.85 0.96 1.00
0.57 0.77 0.84 0.78 0.65 0.44 0.37 0.46 0.49 0.40 0.33 0.27 0.27 0.27 0.26 0.25 0.23 0.24 0.27 0.31 0.36 0.36 0.31 0.31 0.31 0.29 0.29 0.31 0.37 0.43 0.45 0.45 0.50 0.55 0.56 0.63 0.72 0.75 0.76 0.75 0.78 0.84 0.91 0.99
0.46 0.45 0.56 0.52 0.38 0.30 0.28 0.29 0.28 0.26 0.27 0.26 0.26 0.26 0.25 0.25 0.23 0.25 0.27 0.31 0.33 0.34 0.34 0.34 0.35 0.32 0.31 0.31 0.35 0.44 0.49 0.48 0.52 0.54 0.54 0.60 0.66 0.73 0.77 0.72 0.71 0.75 0.84 0.96
0.38 0.40 0.44 0.39 0.26 0.24 0.23 0.22 0.22 0.20 0.19 0.19 0.19 0.20 0.21 0.23 0.23 0.24 0.27 0.31 0.35 0.36 0.37 0.37 0.37 0.36 0.34 0.33 0.37 0.44 0.48 0.48 0.51 0.49 0.49 0.53 0.56 0.68 0.78 0.78 0.73 0.72 0.74 0.90
0.26 0.32 0.39 0.34 0.25 0.30 0.26 0.21 0.21 0.20 0.19 0.20 0.20 0.18 0.17 0.19 0.22 0.23 0.25 0.28 0.36 0.41 0.40 0.38 0.38 0.38 0.38 0.38 0.41 0.45 0.47 0.47 0.47 0.47 0.47 0.49 0.52 0.60 0.71 0.76 0.78 0.86 0.84 0.87